sat.trackr.live / text

‹ back to catalog

STARLINK-32271

NORAD 60368 · 2024-138P

PAYLOAD ACTIVE UNKNOWN

§ Identity

Operator
Country
US
Launch date
2024-08-04
Launch site
AFWTR
Launch vehicle
Mass (kg)
RCS (m²)

Purposes: comms

External: N2YO · Heavens-Above · Gunter

§ Orbital elements

Epoch: 2026-05-24T20:19:36.408288Z

Period
94.11 min
Inclination
53.1604°
Eccentricity
0.0001206
Mean motion
15.30189698 rev/d
Perigee alt
474.4 km
Apogee alt
476.1 km
Semi-major
6,853.4 km
B*
-2.5574e-5
RAAN
316.1445°
Arg perigee
98.7986°
Mean anomaly
261.3151°
Rev number
10,228

§ Raw data

STARLINK-322711 60368U 24138P   26144.84694917 -.00001116  00000+0 -25574-4 0  99932 60368  53.1604 316.1445 0001206  98.7986 261.3151 15.30189698102286

JSON: /api/v1/satellites/60368 · /tle

For live sub-satellite position, see the globe view (requires WebGL).

§ Visibility from observer

Set your observer location to see the next 7 days of passes ≥ 10°. The values pass through the URL so the page stays shareable.

No JS? Fill the form by hand. The geolocation button needs JavaScript.